Showing default

SKYKRAFT-1, 55041

Orbit data source: Space-Track

SKYKRAFT-1, 55041 is a payload satellite owned by SkyKraft (AU) in SSO that was launched on Tue, 03 Jan 2023 UTC via an FALCON 9 launch vehicle from the Air Force Eastern Test Range (AFETR). Payload-class satellites include a variety of spacecraft equipped with specific instruments for various scientific and technological missions. These include communications satellites like Starlink; space stations such as the ISS; scientific satellites like the Hubble; Earth observation satellites from companies like Planet Labs, Umbra, and HawkEye 360; GPS; miniature CubeSats for education and research; and military/defense satellites.

Loading next visibility...
Identifier
55041, 2023-001AJ
Orbit
SSO
Country
Flag of AUAU / AUS
Related business
Manufacturer
SkyKraft
Mission
Operational Commercial Technology
Bus & Motor
SKYKRAFT CARRIER, AOCS
Mass
~100 kg wet, ~100 kg dry
Launch date (UTC)
2023-01-03 (3 years ago)
Launch vehicle
FALCON 9
Launch site
Air Force Eastern Test Range (AFETR)
Object type
Payload
Rocket body
Debris
Shape & HBR
Box, 0.3 m
Radar Cross Section
0.065 m², Medium (>0.1 m² and < 1m²)

Expand to show TLE details & history
Last TLE update: 22 hours ago

TLE from 22 hours ago
0 SKYKRAFT-1
1 55041U 23001AJ  25296.87912274  .00034295  00000-0  70081-3 0  9997
2 55041  97.3549   2.7677 0006457 200.2675 159.8319 15.46061393156306
Epoch: 2025-10-23T21:05Z
TLE epoch observation values (Epoch: 2025-10-23T21:05:56.204Z)
Latitude
-0.00004°
Longitude
13.75147°
Altitude
435.515 km
Speed
7.648 km/s
True Right ascension
00h 11m 04s
True Declination
0° 00' 00"
Sunlit
Object was in full shadow at epoch
Visualization orbit readout
Latitude
Unknown
Longitude
Unknown
Altitude
Unknown
Speed
Unknown
Apparent Right ascension
Unknown
Apparent Declination
Unknown
Sunlit
N/A
Visualization observer readout
Local Sidereal Time
13:57:16
Azimuth
Unknown
Elevation
Unknown
Doppler factor
Unknown
Orbital elements
Apogee altitude
429.583 km
Perigee altitude
420.797 km
Semi-major axis
6,803.327 km
Eccentricity
0.00065
Inclination
97.3549°
RAAN
2.7677°
Arg. of periapsis
200.2675°
True anomaly
159.85739°
Mean anomaly
159.8319°
Eccentric anomaly
159.84465°
Mean motion
3.86777 °/min
Orbital period
93.08 mins
BSTAR
0.00070081
Loading maneuver chart data...
Computing Atmospheric mass density...

Documentation

Showing up to 5 results
|